Regional Weather Roundup
Issued by NWS Pendleton, OR

Home | Current Version | Previous Version | Text Only | Print | Product List | Glossary On
Versions: 1 2 3 4 5 6 7 8 9 10 11 12 13 14 15 16 17 18 19 20 21 22 23 24 25 26 27 28 29 30 31 32 33 34 35 36 37 38 39 40 41 42 43 44 45 46 47 48 49 50
000
ASUS46 KPDT 230925
RWRPDT
PENDLETON REGIONAL WEATHER ROUNDUP
NATIONAL WEATHER SERVICE PENDLETON OREGON
200 AM PDT THU MAR 23 2017

NOTE: FAIR INDICATES FEW OR NO CLOUDS BELOW 12,000 FEET WITH NO
SIGNIFICANT WEATHER AND/OR OBSTRUCTIONS TO VISIBILITY.

# INDICATES UNOFFICIAL STATION AND DATA

WAZ520-231010-
EAST SLOPES OF WASHINGTON CASCADES

CITY            SKY/WX      TMP DP  RH  WIND    PRES   REMARKS
#CLE ELUM HS    N/A         36  31  82  CALM    29.97R
#CLE ELUM LAKE  N/A         35  28  75  CALM    30.02S
#GLENWOOD       N/A         37  33  85  S6      30.08R
#NELSON 3SW     N/A         31  29  92  CALM    30.26S
#NILE           N/A         30  28  92  CALM    29.31R
#TEANAWAY 4NE   N/A         36  32  85  W1      N/A
#TROUT LAKE 1NE N/A         34  32  92  CALM    30.11R
#TROUT LAKE 1E  N/A         32  31  96  CALM    30.08S
$$

WAZ521-231010-
SIMCOE HIGHLANDS

CITY            SKY/WX      TMP DP  RH  WIND    PRES   REMARKS
#BICKLETON HS   N/A         31  28  88  W6      30.03F
#CENTERVILLE 1SWN/A         36  32  85  W10     30.07R
#GOLDENDALE 1NE N/A         37  26  64  SW3     N/A
#GOLDENDALE 4W  N/A         38  15  38  W1      30.09R
#GOODNOE HILLS  N/A         37  29  72  W8      29.97S
#LYLE 6NE       N/A         38  34  85  SW2     30.07S
#PITT 4SE       N/A         34  31  89  W6      30.13R
$$

WAZ026-231010-
KITTITAS VALLEY

CITY            SKY/WX      TMP DP  RH  WIND    PRES   REMARKS
ELLENSBURG AP   CLEAR       37  29  72  W12     30.01S WCI 29
#ELLENSBURG CWU N/A         38  31  76  NW12    29.98R WCI 30
#ELLENSBURG 3NE N/A         35  30  82  NW5     28.09S
#ELLENSBURG 13S N/A         38  30  73  E6      N/A
#KITTITAS 4N    N/A         34  27  75  W3      30.02S
#KITTITAS 3S    N/A         34  30  85  CALM    30.03R
#THORP 6N       N/A         36  30  79  W5      30.06R
$$

WAZ027-231010-
YAKIMA VALLEY

CITY            SKY/WX      TMP DP  RH  WIND    PRES   REMARKS
SUNNYSIDE AP    CLEAR       32  30  92  CALM    30.06R
YAKIMA AIRPORT  CLEAR       42  28  57  SW5     30.03R
YAKIMA-VAGABOND CLEAR       32  27  82  E3      30.01R
#DONALD 2NE     N/A         40  17  39  CALM    28.89R
#GRANDVIEW      N/A         36  30  79  CALM    30.08R
#MABTON         N/A         39  33  79  NE1     30.05R
#MOXEE 2E       N/A         32   0  25  SE2     29.99R
#NACHES 2SW     N/A         38  31  76  W1      29.97S
#TERRACE HTS    N/A         38  29  70  CALM    30.01R
#TOPPENISH      N/A         39  32  76  CALM    29.97R
#WEST VALLEY    N/A         41  28  59  CALM    30.03R
#W YAKIMA       N/A         42  27  55  CALM    30.04R
#WHITE SWAN 5E  N/A         42  31  65  CALM    30.05R
$$

WAZ028-231010-
LOWER COLUMBIA BASIN...WASHINGTON

CITY            SKY/WX      TMP DP  RH  WIND    PRES   REMARKS
PASCO           CLEAR       42  33  70  S3      30.06R
PROSSER AWOS    N/A         34  30  85  CALM    30.09R
RICHLAND AWOS   CLEAR       41  34  76  S10     30.06R
#BENTON CITY    N/A         39  32  76  SW1     29.97R
#CONNELL 5N     N/A         36  34  92  W7      30.03S
#CONNELL 5NW    N/A         36  33  89  CALM    29.99R
#ELTOPIA 6NW    N/A         40  35  82  CALM    29.00R
#KAHLOTUS       N/A         38  34  85  W16G24  30.03R WCI 29
#KENNEWICK 3S   N/A         41  34  76  W7      30.06R
#PATERSON       N/A         41  36  82  NW6     30.07R
#SAGEMOOR 2W    N/A         41  34  76  W6      29.92R
#TOUCHET 2S     N/A         43  36  76  SW16    30.05S WCI 35
#WEST PASCO     N/A         43  34  70  S2      30.05R
$$

WAZ029-231010-
FOOTHILLS OF THE BLUES...WASHINGTON

CITY            SKY/WX      TMP DP  RH  WIND    PRES   REMARKS
WALLA WALLA AP  CLEAR       43  34  70  S14     30.06S WCI 36
#CLYDE 6NW      N/A         39  36  89  S10     30.05R
#DAYTON SCHOOL  N/A         42  28  57  SW12    30.06R WCI 35
#LOWDEN 2SE     N/A         42  36  79  SW1     30.04R
#PLEASANT VIEW 1N/A         36  34  92  S12     30.09R WCI 28
#PRESCOTT       N/A         42  37  82  S2      30.06R
#WHITMAN COLLEGEN/A         43  35  73  SE3     30.14R
#WAITSBURG 5S   N/A         39  35  85  S7      30.17R
#WAITSBURG 8N   N/A         37  N/A N/A S10     29.99R
#WALLA WALLA 5E N/A         43  35  73  S16     N/A    WCI 35
#WALLA WALLA U  N/A         45  37  73  CALM    30.09R
#WHITMAN MISSIONN/A         43  36  76  CALM    30.10R
$$

WAZ030-231010-
BLUE MOUNTAINS...WASHINGTON

CITY            SKY/WX      TMP DP  RH  WIND    PRES   REMARKS
#DIXIE 5SE      N/A         43  36  76  S7      29.95R
$$

ORZ009-041-WAZ024-231010-
COLUMBIA RIVER GORGE

CITY            SKY/WX      TMP DP  RH  WIND    PRES   REMARKS
HOOD RIVER AP   MOCLDY      41  36  82  NW8     30.11S
THE DALLES AP   CLEAR       44  36  73  W10     30.11R
#ARLINGTON AIRPON/A         39  34  82  CALM    30.11R
#ARLINGTON HS   N/A         41  33  73  N1      30.01R
#CELILO DOT     N/A         45  32  60  SW6     N/A
#LYLE           N/A         45  39  79  N3      30.13S
#MOSIER 1S      N/A         40  29  64  CALM    30.09S
#MURDOCK        N/A         44  37  76  N10     30.08R
#RUFUS DOT      N/A         46  36  68  W12     N/A    WCI 40
#SMITHVILLE     N/A         44  38  79  N10     30.05R

$$

ORZ510-231010-
NORTH CENTRAL OREGON

CITY            SKY/WX      TMP DP  RH  WIND    PRES   REMARKS
#ANTELOPE       N/A         29  26  88  N2      29.97F
#CHENOWITH 1W   N/A         37  34  89  NW14    N/A    WCI 28
#COW CYN RST AREN/A         35  28  75  W2      N/A
#DUFUR          N/A         32  30  92  CALM    30.07R
#DUFUR 9E       N/A         35  32  89  CALM    30.14F
#GRASS VALLEY 1SN/A         32  29  89  SW2     30.19S
#KENT DOT       N/A         33  26  75  N6      N/A
#MAUPIN SCHOOL  N/A         38  30  73  CALM    30.13S
#MORO SCHOOL    N/A         37  35  92  W3      30.14S
#SHANIKO 5WSW   N/A         34  22  61  N7      N/A
#SHANIKO 4NW    N/A         33  27  78  W10     30.02S
#TYGH VALLEY 2NEN/A         39  32  76  N2      30.09R
#WAPANITIA AIRPON/A         36  32  85  W2      30.11S
#WASCO 5NE      N/A         34  30  85  CALM    30.09R
$$

ORZ511-231010-
CENTRAL OREGON

CITY            SKY/WX      TMP DP  RH  WIND    PRES   REMARKS
BEND AIRPORT    CLEAR       28  27  96  CALM    30.05F
MADRAS AIRPORT  CLEAR       28  28  100 SE5     30.08F
PRINEVILLE AP   CLOUDY      34  30  85  MISG    30.05F
REDMOND AIRPORT PTCLDY      27  23  85  SE6     30.05F
#ASHWOOD SCHOOL N/A         33  30  89  S3      30.03F
#BEND 1SW       N/A         29  27  92  CALM    N/A
#BEND-AWBREY    N/A         32  29  89  SE3     30.07S
#BEND-KIM LN    N/A         26  24  92  CALM    30.05S
#CULVER         N/A         32  26  78  CALM    30.03S
#CULVER 8W      N/A         30  27  88  CALM    30.05F
#LAKE BILLY CHINN/A         35  N/A N/A CALM    30.17S
#POWELL BUTTE   N/A         34  26  72  S3      29.99F
#PRINEVILLE     N/A         34  30  85  E6      30.17S
#PRINEVILLE 3N  N/A         30  27  88  E3      30.08F
#WARM SPRINGS   N/A         35  31  85  CALM    30.05S

$$


ORZ509-231010-
EAST SLOPES OF OREGON CASCADES

CITY            SKY/WX      TMP DP  RH  WIND    PRES   REMARKS
SISTERS AWOS    N/A         32  28  85  CALM    30.02S
#BLUE BOX PASS  N/A         29  N/A N/A W3      N/A
#CAMP SHERMAN   N/A         28  25  88  CALM    30.19S
#LA PINE 4NW    N/A         26  23  88  CALM    30.14S
#LAVA BUTTE DOT N/A         29  25  85  CALM    N/A
#SISTERS ODOT   N/A         29  N/A N/A CALM    N/A
#SISTERS 3N     N/A         29  22  75  CALM    30.08S
#SUNRIVER       N/A         27  25  92  CALM    30.10S
#TUMALO 3W      N/A         31  28  88  S2      29.96F
#WANOGA BUTTE D N/A         26  21  81  SW2     N/A

$$

ORZ044-231010-
LOWER COLUMBIA BASIN...OREGON

CITY            SKY/WX      TMP DP  RH  WIND    PRES   REMARKS
HERMISTON       CLEAR       42  36  79  SW8     30.07R
#BOARDMAN SCHOOLN/A         41  36  82  N3      30.08R
#BOARDMAN 8SW   N/A         40  36  85  SW7     30.08S
#ECHO 8SW       N/A         42  34  73  SW5     30.08S
#I-84 EX 198 DOTN/A         42  33  70  N16     N/A    WCI 34
#IONE SCHOOL    N/A         38  21  50  CALM    30.11S
#UMATILLA       N/A         43  34  70  SW7     30.02R
$$

ORZ507-231010-
NORTHERN FOOTHILLS OF THE BLUES

CITY            SKY/WX      TMP DP  RH  WIND    PRES   REMARKS
PENDLETON AIRPT CLEAR       39  33  79  SW9     30.07R
#ADAMS 3WNW     N/A         37  33  85  SW6     30.10R
#ATHENA         N/A         39  33  79  SW3     30.12R
#CAYUSE         N/A         42  34  73  W7      30.09R
#HELIX SCHOOL   N/A         38  34  85  N12     30.09R WCI 30
#HELIX 3N       N/A         36  33  89  SW13    30.01S WCI 27
#HOLDMAN 5SE    N/A         38  34  85  SW5     30.06R
#HOLDMAN 6E     N/A         37  33  85  S9      29.89R
#M-F FERNDALE   N/A         43  34  70  CALM    30.05R
#M-F GROVE ELEM N/A         42  31  65  S1      30.05R
#M-FREEWATER 5SEN/A         42  33  70  CALM    30.07R
#PENDLETON DNTN N/A         38  31  76  CALM    30.07S
#PDT AQUATIC CTRN/A         40  32  73  CALM    29.98R
#PDT SUNRIDGE   N/A         41  34  76  CALM    30.10R
#PILOT ROCK 1S  N/A         39  26  59  CALM    30.07S
#PILOT ROCK     N/A         38  32  79  SW1     30.08S
#TUTUILLA       N/A         39  33  79  SW1     30.11R
#UMAPINE 2E     N/A         43  36  76  S6      30.05R
#WESTON SCHOOL  N/A         39  30  70  W7      30.09R

$$

ORZ508-231010-
SOUTHERN FOOTHILLS OF THE BLUES

CITY            SKY/WX      TMP DP  RH  WIND    PRES   REMARKS
LEXINGTON       MOCLEAR     37  32  82  S3      30.10F
#AJAX           N/A         36  24  61  SE5     30.20S
#CONDON SCHOOL  N/A         33  29  85  SW2     30.00S
#CONDON 5W      N/A         32  27  82  W10     30.01S
#FOSSIL SCHOOL  N/A         31  27  85  CALM    30.01R
#HEPPNER EOC    N/A         37  30  75  SW1     30.03S
#HEPPNER 4NE    N/A         34  30  85  S2      30.09R
#LEXINGTON 2SE  N/A         37  31  79  CALM    30.04S
#OLEX 4N        N/A         36  32  85  SW3     30.07R
#RUGGS 5NE      N/A         33  31  92  SW6     30.20S
#RUGGS 2SW      N/A         35  29  78  SW8     30.11S

$$

ORZ502-503-231010-
BLUE MOUNTAINS

CITY            SKY/WX      TMP DP  RH  WIND    PRES   REMARKS
MEACHAM         MOCLDY      31  28  88  CALM    30.02S
#BATTLE MTN DOT N/A         29  28  96  CALM    N/A
#GREENHORN 9SW  N/A         32  N/A N/A CALM    26.22R
#HEPPNER 15SE   N/A         30  27  88  W3      30.04S
#LADD CYN SMT   N/A         35  32  89  NW6     N/A
#LADD CREEK ODOTN/A         37  33  85  NE3     N/A
#LONG CREEK HS  N/A         35  35  100 CALM    N/A
#N POWDER DOT   N/A         37  33  85  NE14    N/A    WCI 28
#PIKES PEAK     N/A         34  28  78  W22     27.99S WCI 22
#TOLLGATE       N/A         27  26  96  SW8     29.84F
#TROY SCHOOL    N/A         39  36  89  CALM    29.91R
#UKIAH          N/A         29  28  96  CALM    30.00R
#WESTON 4E      N/A         33  30  89  S5      30.05R
$$

ORZ505-231010-
JOHN DAY BASIN

CITY            SKY/WX      TMP DP  RH  WIND    PRES   REMARKS
JOHN DAY        PTCLDY      36  33  89  CALM    30.04R
#JOHN DAY KJDY  N/A         33  N/A N/A CALM    29.65R
#ANTELOPE 9ESE  N/A         33  29  85  CALM    N/A
#DAYVILLE SCHOOLN/A         36  30  79  CALM    30.02R
#MITCHELL       N/A         30  29  96  CALM    30.22R
#MITCHELL 8NW   N/A         34  29  82  CALM    29.91R
#MONUMENT HS    N/A         36  31  82  CALM    30.03R
#MT. VERNON 5SE N/A         35  32  89  CALM    29.98R
#SPRAY SCHOOL   N/A         40  N/A N/A CALM    N/A
#WINLOCK        N/A         32  27  82  CALM    30.01S
$$

ORZ506-231010-
OCHOCO AND JOHN DAY HIGHLANDS

CITY            SKY/WX      TMP DP  RH  WIND    PRES   REMARKS
#HORSE RIDGE DO N/A         21  18  88  CALM    N/A
#PAULINA SCHOOL N/A         33  28  82  SW3     N/A
#PINE MTN OBS   N/A         25  23  92  W2      N/A
#SENECA         N/A         29  N/A N/A CALM    N/A
#SENECA 9NW     N/A         27  26  96  CALM    30.05R
$$

ORZ049-231010-
GRANDE RONDE VALLEY

CITY            SKY/WX      TMP DP  RH  WIND    PRES   REMARKS
LA GRANDE       CLEAR       37  30  75  N12     30.04R WCI 29
#COVE           N/A         37  36  96  CALM    30.07R
#COVE SCHOOL    N/A         37  34  89  CALM    30.06R
#COVE 6NW       N/A         38  33  82  W3      30.07R
#ELGIN 3N       N/A         36  27  69  CALM    30.02R
#ELGIN 1E       N/A         38  31  76  CALM    N/A
#IMBLER SCHOOL  N/A         38  31  76  CALM    30.00R
#ISLAND CITY 4N N/A         40  39  96  CALM    30.14S
#UNION 1S       N/A         37  32  82  CALM    30.07R
$$

ORZ050-231010-
WALLOWA COUNTY

CITY            SKY/WX      TMP DP  RH  WIND    PRES   REMARKS
JOSEPH AIRPORT  MOCLDY      34  32  92  N3      30.01F
#IMNAHA SCHOOL  N/A         43  39  86  CALM    30.03R
#IMNAHA 10S     N/A         36  34  92  SW2     30.01S
#JOSEPH 3N      N/A         33  28  82  CALM    30.03S
#JOSEPH 3W      N/A         N/A N/A N/A SW5     29.84S
#LOSTINE        N/A         33  32  96  CALM    29.88S
#LOSTINE 3SE    N/A         33  32  96  CALM    30.06S
#MT HOWARD 8000 N/A         22  20  92  CALM    29.90F
#PROMISE 1S     N/A         33  29  85  E3      30.15R
#WALLOWA SCHOOL N/A         36  32  85  CALM    30.01R



$$



USA.gov is the U.S. government's official web portal to all federal, state and local government web resources and services.